This demonstration page uses our WeatherBlox Daily Observations layout. Learn more.

Left ArrowRight Arrow

Hourly Observations for September 28, 2018

Temp ( °F °C ) Dew Point ( °F °C ) Humidity (%) Winds ( mph kmh ) Pressure ( in mb ) Visibility ( mi km ) Precip ( " mm )
12:53 am 00:53 Clear 55 12.8 46 7.8 72 72 NE 13 20 30.06 1018 10 16 0.00 0.00
1:53 am 01:53 Mostly Cloudy 54 12.2 46 7.8 75 75 NE 15 24 30.07 1018 10 16 0.00 0.00
2:53 am 02:53 Partly Cloudy 53 11.7 46 7.8 77 77 NE 16 26 30.08 1019 10 16 0.00 0.00
3:53 am 03:53 Mostly Cloudy 51 10.6 39 3.9 64 64 NNE 18 30 30.12 1020 10 16 0.00 0.00
4:53 am 04:53 Cloudy 50 10 39 3.9 66 66 NNE 17 28 30.15 1021 10 16 0.00 0.00
5:53 am 05:53 Cloudy 49 9.4 39 3.9 69 69 NNE 22 35 30.17 1022 10 16 0.00 0.00
6:53 am 06:53 Mostly Cloudy 48 8.9 38 3.3 68 68 NNE 18 30 30.18 1022 10 16 0.00 0.00
7:53 am 07:53 Cloudy 47 8.3 38 3.3 71 71 NNE 16 26 30.24 1024 10 16 0.00 0.00
8:53 am 08:53 Cloudy 47 8.3 38 3.3 71 71 NNE 14 22 30.26 1025 10 16 0.00 0.00
9:53 am 09:53 Cloudy 48 8.9 38 3.3 68 68 NNE 21 33 30.30 1026 10 16 0.00 0.00
10:53 am 10:53 Cloudy 48 8.9 39 3.9 71 71 NNE 12 19 30.32 1027 10 16 0.00 0.00
11:53 am 11:53 Cloudy 48 8.9 37 2.8 66 66 NNE 16 26 30.34 1027 10 16 0.00 0.00
12:53 pm 12:53 Cloudy 48 8.9 37 2.8 66 66 NE 15 24 30.36 1028 10 16 0.00 0.00
1:40 pm 13:40 Cloudy 48 9 37 3 66 66 NE 15 24 30.36 1028 10 16 0.00 0.00
1:53 pm 13:53 Cloudy 49 9.4 38 3.3 66 66 NE 14 22 30.34 1028 10 16 0.00 0.00
2:06 pm 14:06 Cloudy 50 10 37 3 62 62 ENE 13 20 30.33 1027 10 16 0.00 0.00
2:29 pm 14:29 Cloudy 51 10.6 38 3.3 61 61 NE 13 20 30.33 1027 10 16 0.00 0.00
2:53 pm 14:53 Cloudy 50 10 37 2.8 61 61 NE 12 19 30.33 1027 10 16 0.00 0.00
3:18 pm 15:18 Cloudy 52 11 37 3 58 58 ENE 14 22 30.33 1027 10 16 0.00 0.00
3:28 pm 15:28 Cloudy 52 11 37 3 58 58 ENE 10 17 30.30 1026 10 16 0.00 0.00
3:53 pm 15:53 Cloudy 52 11.1 38 3.3 59 59 E 14 22 30.32 1027 10 16 0.00 0.00
4:53 pm 16:53 Cloudy 52 11.1 37 2.8 57 57 ENE 10 17 30.31 1027 10 16 0.00 0.00
5:53 pm 17:53 Cloudy 51 10.6 36 2.2 56 56 NE 9 15 30.31 1027 10 16 0.00 0.00
6:53 pm 18:53 Cloudy 50 10 36 2.2 59 59 NE 8 13 30.31 1027 10 16 0.00 0.00
7:53 pm 19:53 Cloudy 50 10 36 2.2 59 59 NE 6 9 30.33 1027 10 16 0.00 0.00
8:53 pm 20:53 Cloudy 49 9.4 37 2.8 64 64 E 6 9 30.34 1027 10 16 0.00 0.00
9:53 pm 21:53 Cloudy 48 8.9 40 4.4 74 74 SSE 3 6 30.34 1027 10 16 0.00 0.00
10:53 pm 22:53 Cloudy 48 8.9 39 3.9 71 71 Calm 30.34 1027 10 16 0.00 0.00
11:53 pm 23:53 Cloudy 47 8.3 39 3.9 74 74 SE 5 7 30.33 1027 10 16 0.00 0.00

Powered by AerisWeather